{"data":{"norad_id":63243,"intl_designator":"2025-052AK","name":"HERMES-2","alt_names":[],"object_type":"PAYLOAD","status":"ACTIVE","operator":null,"country":"IT","launch_date":"2025-03-15","launch_site_code":"AFWTR","launch_vehicle":null,"mission":null,"orbit_class":"UNKNOWN","rcs_meters":null,"size_class":null,"mass_kg":null,"dimensions":null,"purposes":[],"wikipedia_slug":null,"has_3d_model":false,"image_url":null,"decayed_at":null,"tle_current":{"epoch":"2026-09-21T22:37:43.562784Z","epoch_age_seconds":95387,"freshness":"FRESH","line1":"1 63243U 25052AK  26264.94286531  .00004766  00000+0  15758-3 0  9991","line2":"2 63243  97.3748 159.4023 0005919 118.1378 242.0462 15.31824203 84826","mean_motion":15.31824203,"eccentricity":0.0005919,"inclination_deg":97.3748,"raan_deg":159.4023,"arg_perigee_deg":118.1378,"mean_anomaly_deg":242.0462,"bstar":0.00015758,"rev_number":8482,"period_min":94.005565206493,"perigee_km":466.31614640084,"apogee_km":474.42340872412,"semimajor_km":6848.5067775625,"source":"CELESTRAK","updated_at":"2026-09-22T09:00:29.058076Z"}}}